Location: Lourdes
(43.1000°N, 0.0500°W)
Time: 04:31:42
(UTC+00:00)

Okean-O - Pass Details

Date: 30 November 2020
Orbit: 639 x 640 km, 98.2° (Epoch: 24 January)

Event Time Altitude Azimuth Distance (km) Brightness Sun altitude
Rises 17:34:11 0° 131° (SE) 2,934 5.7 -12.1°
Reaches altitude 10° 17:36:44 10° 117° (ESE) 2,030 4.8 -12.5°
Maximum altitude 17:40:11 23° 66° (ENE) 1,373 3.7 -13.1°
Drops below altitude 10° 17:43:39 10° 14° (NNE) 2,042 4.9 -13.7°
Sets 17:46:13 0° 0° (N) 2,956 5.9 -14.2°
